,,,PA_Meas_PMT16A,,PR_Meas_QMR101_102,,RH_Meas_QMH101,,SR_Meas_QMS101,,TA_Meas_QMH101,,GenWind,,GenWind,
date,time,status,PA,status,PR,status,RH,status,SR,status,TA,status,DirAvg,status,SpdAvg,
2014-11-07, 00:00:05,VALID,1010.45,VALID,0,INVALID,138.179,VALID,0,VALID,24.0643,VALID,24,VALID,0,
2014-11-07, 00:01:05,VALID,1010.44,VALID,0,INVALID,138.232,VALID,0,VALID,24.0448,VALID,24,VALID,0,
2014-11-07, 00:02:05,VALID,1010.41,VALID,0,INVALID,138.339,VALID,0,VALID,24.0643,VALID,24,VALID,0,
2014-11-07, 00:03:05,VALID,1010.41,VALID,0,INVALID,138.4,VALID,0,VALID,24.0429,VALID,24,VALID,0,
2014-11-07, 00:04:05,VALID,1010.36,VALID,0,INVALID,138.4,VALID,0,VALID,24.0448,VALID,24,VALID,0,
2014-11-07, 00:05:05,VALID,1010.33,VALID,0,INVALID,138.461,VALID,0,VALID,24.0643,VALID,24,VALID,0,
2014-11-07, 00:06:05,VALID,1010.33,VALID,0,INVALID,138.56,VALID,0,VALID,24.0643,VALID,24,VALID,0,
2014-11-07, 00:07:05,VALID,1010.32,VALID,0,INVALID,138.545,VALID,0,VALID,24.0643,VALID,24,VALID,0.046875,
2014-11-07, 00:08:05,VALID,1010.3,VALID,0,INVALID,138.529,VALID,0,VALID,24.0448,VALID,24,VALID,0,
2014-11-07, 00:09:05,VALID,1010.3,VALID,0,INVALID,138.468,VALID,0,VALID,24.0448,VALID,24,VALID,0,
2014-11-07, 00:10:05,VALID,1010.28,VALID,0,INVALID,138.491,VALID,0,VALID,24.0448,VALID,24,VALID,0,
2014-11-07, 00:11:05,VALID,1010.26,VALID,0,INVALID,138.484,VALID,0.112112,VALID,24.0235,VALID,24,VALID,0,
2014-11-07, 00:12:05,VALID,1010.25,VALID,0,INVALID,138.484,VALID,0,VALID,24.0448,VALID,24,VALID,0,
2014-11-07, 00:13:05,VALID,1010.23,VALID,0,INVALID,138.461,VALID,0,VALID,24.0448,VALID,24,VALID,0,
2014-11-07, 00:14:05,VALID,1010.23,VALID,0,INVALID,138.491,VALID,0,VALID,24.0253,VALID,24,VALID,0,
2014-11-07, 00:15:05,VALID,1010.2,VALID,0,INVALID,138.476,VALID,0,VALID,24.0253,VALID,24,VALID,0,
2014-11-07, 00:16:05,VALID,1010.18,VALID,0,INVALID,138.468,VALID,0,VALID,24.0253,VALID,24,VALID,0,
2014-11-07, 00:17:05,VALID,1010.16,VALID,0,INVALID,138.476,VALID,0,VALID,24.0253,VALID,24,VALID,0,
2014-11-07, 00:18:05,VALID,1010.18,VALID,0,INVALID,138.491,VALID,0,VALID,24.0058,VALID,24,VALID,0,
2014-11-07, 00:19:05,VALID,1010.14,VALID,0,INVALID,138.537,VALID,0,VALID,24.0253,VALID,24,VALID,0,
2014-11-07, 00:20:05,VALID,1010.15,VALID,0,INVALID,138.629,VALID,0,VALID,24.0058,VALID,24,VALID,0.163672,
2014-11-07, 00:21:05,VALID,1010.13,VALID,0,INVALID,138.682,VALID,0,VALID,24.0253,VALID,24,VALID,0.000390625,
2014-11-07, 00:22:05,VALID,1010.11,VALID,0,INVALID,138.728,VALID,0,VALID,24.0448,VALID,24,VALID,0.156641,
2014-11-07, 00:23:05,VALID,1010.11,VALID,0,INVALID,138.751,VALID,0,VALID,24.004,VALID,24,VALID,0.297656,
2014-11-07, 00:24:05,VALID,1010.1,VALID,0,INVALID,138.735,VALID,0,VALID,24.0253,VALID,24,VALID,0.0121094,
2014-11-07, 00:25:05,VALID,1010.09,VALID,0,INVALID,138.712,VALID,0,VALID,24.0058,VALID,24,VALID,0,
2014-11-07, 00:26:05,VALID,1010.08,VALID,0,INVALID,138.712,VALID,0,VALID,24.0058,VALID,24,VALID,0,
2014-11-07, 00:27:05,VALID,1010.05,VALID,0,INVALID,138.72,VALID,0,VALID,24.0058,VALID,24,VALID,0,
2014-11-07, 00:28:05,VALID,1010.05,VALID,0,INVALID,138.72,VALID,0,VALID,23.965,VALID,24,VALID,0,
2014-11-07, 00:29:05,VALID,1010.02,VALID,0,INVALID,138.72,VALID,0,VALID,24.0058,VALID,24,VALID,0,
2014-11-07, 00:30:05,VALID,1010.03,VALID,0,INVALID,138.697,VALID,0,VALID,23.9863,VALID,24,VALID,0,
2014-11-07, 00:31:05,VALID,1010,VALID,0,INVALID,138.773,VALID,0,VALID,23.9668,VALID,24,VALID,0,
2014-11-07, 00:32:05,VALID,1010.03,VALID,0,INVALID,138.812,VALID,0,VALID,23.9863,VALID,24,VALID,0,
2014-11-07, 00:33:05,VALID,1010,VALID,0,INVALID,138.949,VALID,0,VALID,23.9473,VALID,24,VALID,0,
2014-11-07, 00:34:05,VALID,1010,VALID,0,INVALID,139.025,VALID,0,VALID,23.9473,VALID,24,VALID,0.261719,
2014-11-07, 00:35:05,VALID,1009.97,VALID,0,INVALID,139.155,VALID,0,VALID,23.9473,VALID,24,VALID,0.34375,
2014-11-07, 00:36:05,VALID,1009.94,VALID,0,INVALID,139.406,VALID,0,VALID,23.9473,VALID,24,VALID,0.255469,
2014-11-07, 00:37:05,VALID,1009.95,VALID,0,INVALID,139.384,VALID,0,VALID,23.9473,VALID,24,VALID,0.152734,
2014-11-07, 00:38:05,VALID,1009.92,VALID,0,INVALID,139.315,VALID,0,VALID,23.9473,VALID,24,VALID,0,
2014-11-07, 00:39:05,VALID,1009.9,VALID,0,INVALID,139.292,VALID,0,VALID,23.9278,VALID,24,VALID,0,
2014-11-07, 00:40:05,VALID,1009.88,VALID,0,INVALID,139.3,VALID,0,VALID,23.9278,VALID,24,VALID,0,
2014-11-07, 00:41:05,VALID,1009.87,VALID,0,INVALID,139.315,VALID,0,VALID,23.926,VALID,24,VALID,0,
2014-11-07, 00:42:05,VALID,1009.86,VALID,0,INVALID,139.33,VALID,0,VALID,23.9473,VALID,24,VALID,0,
2014-11-07, 00:43:04,VALID,1009.86,VALID,0,INVALID,139.292,VALID,0,VALID,23.9473,VALID,24,VALID,0,
2014-11-07, 00:44:04,VALID,1009.84,VALID,0,INVALID,139.284,VALID,0,VALID,23.9473,VALID,24,VALID,0,
2014-11-07, 00:45:04,VALID,1009.84,VALID,0,INVALID,139.277,VALID,0,VALID,23.9473,VALID,24,VALID,0.262891,
2014-11-07, 00:46:04,VALID,1009.83,VALID,0,INVALID,139.3,VALID,0,VALID,23.9473,VALID,24,VALID,0.379687,
2014-11-07, 00:47:04,VALID,1009.83,VALID,0,INVALID,139.269,VALID,0,VALID,23.9278,VALID,24,VALID,0.110547,
2014-11-07, 00:48:04,VALID,1009.83,VALID,0,INVALID,139.239,VALID,0,VALID,23.9473,VALID,24,VALID,0.251563,
2014-11-07, 00:49:04,VALID,1009.83,VALID,0,INVALID,139.216,VALID,0,VALID,23.9473,VALID,24,VALID,0.181641,
2014-11-07, 00:50:04,VALID,1009.81,VALID,0,INVALID,139.155,VALID,0,VALID,23.9473,VALID,24,VALID,0.26875,
2014-11-07, 00:51:04,VALID,1009.79,VALID,0,INVALID,139.139,VALID,0,VALID,23.9668,VALID,24,VALID,0.364844,
2014-11-07, 00:52:04,VALID,1009.78,VALID,0,INVALID,139.086,VALID,0,VALID,23.9668,VALID,24,VALID,0.184375,
2014-11-07, 00:53:04,VALID,1009.78,VALID,0,INVALID,139.078,VALID,0,VALID,23.9668,VALID,24,VALID,0.373828,
2014-11-07, 00:54:04,VALID,1009.75,VALID,0,INVALID,139.078,VALID,0,VALID,23.9668,VALID,24,VALID,0.580469,
2014-11-07, 00:55:04,VALID,1009.74,VALID,0,INVALID,139.078,VALID,0,VALID,23.9473,VALID,24,VALID,0.605469,
2014-11-07, 00:56:04,VALID,1009.73,VALID,0,INVALID,139.101,VALID,0,VALID,23.9473,VALID,24,VALID,0.196484,
2014-11-07, 00:57:04,VALID,1009.7,VALID,0,INVALID,139.078,VALID,0,VALID,23.9473,VALID,24,VALID,0.117969,
2014-11-07, 00:58:04,VALID,1009.67,VALID,0,INVALID,139.056,VALID,0,VALID,23.9473,VALID,24,VALID,0.196484,
2014-11-07, 00:59:04,VALID,1009.65,VALID,0,INVALID,139.056,VALID,0,VALID,23.9473,VALID,24,VALID,0.0589844,
2014-11-07, 01:00:04,VALID,1009.63,VALID,0,INVALID,139.056,VALID,0,VALID,23.9278,VALID,24,VALID,0.238281,
2014-11-07, 01:01:04,VALID,1009.61,VALID,0,INVALID,139.078,VALID,0,VALID,23.9473,VALID,24,VALID,0,
2014-11-07, 01:02:04,VALID,1009.6,VALID,0,INVALID,139.086,VALID,0,VALID,23.9278,VALID,24,VALID,0,
2014-11-07, 01:03:04,VALID,1009.59,VALID,0,INVALID,139.094,VALID,0,VALID,23.9278,VALID,24,VALID,0,
2014-11-07, 01:04:04,VALID,1009.56,VALID,0,INVALID,139.071,VALID,0,VALID,23.9278,VALID,24,VALID,0,
2014-11-07, 01:05:04,VALID,1009.51,VALID,0,INVALID,139.063,VALID,0,VALID,23.9278,VALID,24,VALID,0.215234,
2014-11-07, 01:06:04,VALID,1009.52,VALID,0,INVALID,139.094,VALID,0,VALID,23.9278,VALID,24,VALID,0,
2014-11-07, 01:07:04,VALID,1009.51,VALID,0,INVALID,139.056,VALID,0,VALID,23.9278,VALID,24,VALID,0.487891,
2014-11-07, 01:08:04,VALID,1009.48,VALID,0,INVALID,139.002,VALID,0,VALID,23.9065,VALID,24,VALID,0.0675781,
2014-11-07, 01:09:04,VALID,1009.48,VALID,0,INVALID,139.033,VALID,0,VALID,23.9278,VALID,24,VALID,0,
2014-11-07, 01:10:04,VALID,1009.46,VALID,0,INVALID,139.017,VALID,0,VALID,23.9278,VALID,24,VALID,0.141797,
2014-11-07, 01:11:04,VALID,1009.47,VALID,0,INVALID,139.033,VALID,0,VALID,23.9297,VALID,24,VALID,0.297266,
2014-11-07, 01:12:04,VALID,1009.45,VALID,0,INVALID,139.063,VALID,0,VALID,23.9084,VALID,24,VALID,0.388672,
2014-11-07, 01:13:04,VALID,1009.46,VALID,0,INVALID,139.086,VALID,0,VALID,23.8889,VALID,24,VALID,0.190234,
2014-11-07, 01:14:04,VALID,1009.43,VALID,0,INVALID,139.086,VALID,0,VALID,23.8889,VALID,24,VALID,0.326172,
2014-11-07, 01:15:04,VALID,1009.43,VALID,0,INVALID,139.071,VALID,0,VALID,23.9084,VALID,24,VALID,0.249609,
2014-11-07, 01:16:04,VALID,1009.44,VALID,0,INVALID,139.056,VALID,0,VALID,23.8889,VALID,24,VALID,0.115625,
2014-11-07, 01:17:04,VALID,1009.41,VALID,0,INVALID,139.04,VALID,0.112112,VALID,23.8889,VALID,24,VALID,0.337109,
2014-11-07, 01:18:04,VALID,1009.37,VALID,0,INVALID,139.04,VALID,0,VALID,23.8676,VALID,24,VALID,0.282422,
2014-11-07, 01:19:04,VALID,1009.35,VALID,0,INVALID,139.033,VALID,0,VALID,23.8889,VALID,24,VALID,0.263672,
2014-11-07, 01:20:04,VALID,1009.29,VALID,0,INVALID,139.033,VALID,0,VALID,23.8889,VALID,24,VALID,0,
2014-11-07, 01:21:04,VALID,1009.26,VALID,0,INVALID,139.017,VALID,0,VALID,23.8481,VALID,24,VALID,0,
2014-11-07, 01:22:04,VALID,1009.24,VALID,0,INVALID,139.063,VALID,0,VALID,23.8694,VALID,24,VALID,0,
2014-11-07, 01:23:04,VALID,1009.18,VALID,0,INVALID,139.063,VALID,0,VALID,23.8694,VALID,24,VALID,0.303906,
2014-11-07, 01:24:04,VALID,1009.18,VALID,0,INVALID,139.109,VALID,0,VALID,23.8499,VALID,24,VALID,0.246875,
2014-11-07, 01:25:04,VALID,1009.18,VALID,0,INVALID,139.139,VALID,0.112112,VALID,23.8499,VALID,24,VALID,0,
2014-11-07, 01:26:04,VALID,1009.16,VALID,0,INVALID,139.132,VALID,0,VALID,23.8499,VALID,24,VALID,0,
2014-11-07, 01:27:04,VALID,1009.13,VALID,0,INVALID,139.147,VALID,0,VALID,23.8499,VALID,24,VALID,0.276953,
2014-11-07, 01:28:04,VALID,1009.12,VALID,0,INVALID,139.132,VALID,0,VALID,23.8304,VALID,24,VALID,0,
2014-11-07, 01:29:04,VALID,1009.11,VALID,0,INVALID,139.132,VALID,0,VALID,23.8304,VALID,24,VALID,0,
2014-11-07, 01:30:04,VALID,1009.09,VALID,0,INVALID,139.139,VALID,0,VALID,23.8109,VALID,24,VALID,0,
2014-11-07, 01:31:04,VALID,1009.06,VALID,0,INVALID,139.139,VALID,0,VALID,23.8304,VALID,24,VALID,0,
2014-11-07, 01:32:04,VALID,1009.07,VALID,0,INVALID,139.117,VALID,0,VALID,23.8304,VALID,24,VALID,0,
2014-11-07, 01:33:04,VALID,1009.06,VALID,0,INVALID,139.109,VALID,0,VALID,23.7896,VALID,24,VALID,0,
2014-11-07, 01:34:04,VALID,1009.04,VALID,0,INVALID,139.124,VALID,0,VALID,23.8109,VALID,24,VALID,0,
2014-11-07, 01:35:04,VALID,1009.03,VALID,0,INVALID,139.071,VALID,0,VALID,23.8109,VALID,24,VALID,0,
2014-11-07, 01:36:04,VALID,1009.02,VALID,0,INVALID,139.063,VALID,0,VALID,23.8109,VALID,24,VALID,0,
2014-11-07, 01:37:04,VALID,1009.03,VALID,0,INVALID,139.04,VALID,0,VALID,23.7914,VALID,24,VALID,0,
2014-11-07, 01:38:04,VALID,1008.98,VALID,0,INVALID,139.071,VALID,0,VALID,23.7701,VALID,24,VALID,0,
2014-11-07, 01:39:04,VALID,1008.99,VALID,0,INVALID,139.078,VALID,0,VALID,23.7914,VALID,24,VALID,0,
2014-11-07, 01:40:04,VALID,1008.98,VALID,0,INVALID,139.025,VALID,0,VALID,23.7914,VALID,24,VALID,0,
2014-11-07, 01:41:04,VALID,1008.99,VALID,0,INVALID,139.01,VALID,0,VALID,23.7701,VALID,24,VALID,0,
2014-11-07, 01:42:04,VALID,1008.97,VALID,0,INVALID,138.987,VALID,0,VALID,23.7914,VALID,24,VALID,0,
2014-11-07, 01:43:04,VALID,1008.95,VALID,0,INVALID,138.979,VALID,0,VALID,23.7914,VALID,24,VALID,0,
2014-11-07, 01:44:04,VALID,1008.95,VALID,0,INVALID,139.033,VALID,0,VALID,23.772,VALID,24,VALID,0,
2014-11-07, 01:45:04,VALID,1008.94,VALID,0,INVALID,139.002,VALID,0,VALID,23.7525,VALID,24,VALID,0,
2014-11-07, 01:46:04,VALID,1008.93,VALID,0,INVALID,139.04,VALID,0,VALID,23.7525,VALID,24,VALID,0,
2014-11-07, 01:47:04,VALID,1008.93,VALID,0,INVALID,139.04,VALID,0,VALID,23.7525,VALID,24,VALID,0,
2014-11-07, 01:48:04,VALID,1008.93,VALID,0,INVALID,139.04,VALID,0,VALID,23.7135,VALID,24,VALID,0,
2014-11-07, 01:49:04,VALID,1008.92,VALID,0,INVALID,139.063,VALID,0,VALID,23.7135,VALID,24,VALID,0,
2014-11-07, 01:50:04,VALID,1008.9,VALID,0,INVALID,139.124,VALID,0,VALID,23.694,VALID,24,VALID,0,
2014-11-07, 01:51:04,VALID,1008.87,VALID,0,INVALID,139.117,VALID,0,VALID,23.694,VALID,24,VALID,0,
2014-11-07, 01:52:04,VALID,1008.9,VALID,0,INVALID,139.101,VALID,0,VALID,23.6745,VALID,24,VALID,0,
2014-11-07, 01:53:04,VALID,1008.88,VALID,0,INVALID,139.147,VALID,0,VALID,23.655,VALID,24,VALID,0,
2014-11-07, 01:54:04,VALID,1008.86,VALID,0,INVALID,139.139,VALID,0,VALID,23.655,VALID,24,VALID,0,
2014-11-07, 01:55:04,VALID,1008.83,VALID,0,INVALID,139.132,VALID,0,VALID,23.6356,VALID,24,VALID,0,
2014-11-07, 01:56:04,VALID,1008.82,VALID,0,INVALID,139.109,VALID,0,VALID,23.655,VALID,24,VALID,0,
2014-11-07, 01:57:04,VALID,1008.78,VALID,0,INVALID,139.017,VALID,0,VALID,23.655,VALID,24,VALID,0,
2014-11-07, 01:58:04,VALID,1008.78,VALID,0,INVALID,138.873,VALID,0,VALID,23.655,VALID,24,VALID,0,
2014-11-07, 01:59:04,VALID,1008.77,VALID,0,INVALID,138.796,VALID,0.112112,VALID,23.6727,VALID,24,VALID,0,
2014-11-07, 02:00:04,VALID,1008.74,VALID,0,INVALID,138.735,VALID,0.112112,VALID,23.6532,VALID,24,VALID,0,
2014-11-07, 02:01:04,VALID,1008.7,VALID,0,INVALID,138.682,VALID,0.112112,VALID,23.6727,VALID,24,VALID,0,
2014-11-07, 02:02:04,VALID,1008.7,VALID,0,INVALID,138.575,VALID,0.112112,VALID,23.6922,VALID,24,VALID,0,
2014-11-07, 02:03:04,VALID,1008.67,VALID,0,INVALID,138.476,VALID,0.112112,VALID,23.6727,VALID,24,VALID,0,
2014-11-07, 02:04:04,VALID,1008.67,VALID,0,INVALID,138.4,VALID,0.112112,VALID,23.6922,VALID,24,VALID,0,
2014-11-07, 02:05:04,VALID,1008.67,VALID,0,INVALID,138.354,VALID,0.112112,VALID,23.6922,VALID,24,VALID,0,
2014-11-07, 02:06:04,VALID,1008.63,VALID,0,INVALID,138.346,VALID,0.112112,VALID,23.6922,VALID,24,VALID,0,
2014-11-07, 02:07:04,VALID,1008.6,VALID,0,INVALID,138.324,VALID,0.112112,VALID,23.6922,VALID,24,VALID,0,
2014-11-07, 02:08:04,VALID,1008.63,VALID,0,INVALID,138.278,VALID,0.112112,VALID,23.6922,VALID,24,VALID,0,
2014-11-07, 02:09:04,VALID,1008.6,VALID,0,INVALID,138.278,VALID,0.112112,VALID,23.6922,VALID,24,VALID,0,
2014-11-07, 02:10:04,VALID,1008.59,VALID,0,INVALID,138.194,VALID,0.112112,VALID,23.7117,VALID,24,VALID,0,
2014-11-07, 02:11:04,VALID,1008.59,VALID,0,INVALID,138.125,VALID,0.224224,VALID,23.7312,VALID,24,VALID,0,
2014-11-07, 02:12:04,VALID,1008.6,VALID,0,INVALID,138.034,VALID,0.112112,VALID,23.7312,VALID,24,VALID,0,
2014-11-07, 02:13:04,VALID,1008.58,VALID,0,INVALID,138.034,VALID,0.112112,VALID,23.7507,VALID,24,VALID,0,
2014-11-07, 02:14:04,VALID,1008.56,VALID,0,INVALID,137.95,VALID,0,VALID,23.7507,VALID,24,VALID,0,
2014-11-07, 02:15:04,VALID,1008.57,VALID,0,INVALID,137.904,VALID,0,VALID,23.7507,VALID,24,VALID,0,
2014-11-07, 02:16:04,VALID,1008.58,VALID,0,INVALID,137.896,VALID,0,VALID,23.7525,VALID,24,VALID,0,
2014-11-07, 02:17:04,VALID,1008.54,VALID,0,INVALID,137.896,VALID,0,VALID,23.7525,VALID,24,VALID,0.177344,
2014-11-07, 02:18:04,VALID,1008.52,VALID,0,INVALID,137.896,VALID,0,VALID,23.7507,VALID,24,VALID,0.259766,
2014-11-07, 02:19:04,VALID,1008.54,VALID,0,INVALID,137.912,VALID,0,VALID,23.772,VALID,24,VALID,0,
2014-11-07, 02:20:04,VALID,1008.5,VALID,0,INVALID,137.912,VALID,0,VALID,23.7507,VALID,24,VALID,0,
2014-11-07, 02:21:04,VALID,1008.5,VALID,0,INVALID,137.98,VALID,0.112112,VALID,23.7507,VALID,24,VALID,0,
2014-11-07, 02:22:04,VALID,1008.52,VALID,0,INVALID,138.011,VALID,0.112112,VALID,23.7701,VALID,24,VALID,0,
2014-11-07, 02:23:04,VALID,1008.51,VALID,0,INVALID,138.087,VALID,0.112112,VALID,23.7507,VALID,24,VALID,0,
2014-11-07, 02:24:04,VALID,1008.5,VALID,0,INVALID,138.064,VALID,0.112112,VALID,23.7507,VALID,24,VALID,0.0675781,
2014-11-07, 02:25:04,VALID,1008.47,VALID,0,INVALID,138.049,VALID,0.112112,VALID,23.7914,VALID,24,VALID,0.228906,
2014-11-07, 02:26:04,VALID,1008.48,VALID,0,INVALID,138.08,VALID,0.112112,VALID,23.7701,VALID,24,VALID,0.217578,
2014-11-07, 02:27:04,VALID,1008.47,VALID,0,INVALID,138.102,VALID,0.112112,VALID,23.7896,VALID,24,VALID,0,
2014-11-07, 02:28:04,VALID,1008.47,VALID,0,INVALID,138.133,VALID,0,VALID,23.7701,VALID,24,VALID,0,
2014-11-07, 02:29:04,VALID,1008.49,VALID,0,INVALID,138.186,VALID,0,VALID,23.7932,VALID,24,VALID,0.00078125,
2014-11-07, 02:30:04,VALID,1008.49,VALID,0,INVALID,138.24,VALID,0,VALID,23.772,VALID,24,VALID,0.171484,
2014-11-07, 02:31:04,VALID,1008.48,VALID,0,INVALID,138.263,VALID,0,VALID,23.772,VALID,24,VALID,0.297656,
2014-11-07, 02:32:04,VALID,1008.48,VALID,0,INVALID,138.308,VALID,0,VALID,23.772,VALID,24,VALID,0.107422,
2014-11-07, 02:33:04,VALID,1008.49,VALID,0,INVALID,138.346,VALID,0,VALID,23.7932,VALID,24,VALID,0,
2014-11-07, 02:34:04,VALID,1008.48,VALID,0,INVALID,138.43,VALID,0,VALID,23.7932,VALID,24,VALID,0,
2014-11-07, 02:35:04,VALID,1008.48,VALID,0,INVALID,138.468,VALID,0,VALID,23.772,VALID,24,VALID,0,
2014-11-07, 02:36:04,VALID,1008.47,VALID,0,INVALID,138.507,VALID,0,VALID,23.7914,VALID,24,VALID,0,
2014-11-07, 02:37:04,VALID,1008.45,VALID,0,INVALID,138.507,VALID,0,VALID,23.7914,VALID,24,VALID,0,
2014-11-07, 02:38:04,VALID,1008.46,VALID,0,INVALID,138.583,VALID,0,VALID,23.7914,VALID,24,VALID,0,
2014-11-07, 02:39:04,VALID,1008.5,VALID,0,INVALID,138.59,VALID,0,VALID,23.7914,VALID,24,VALID,0,
2014-11-07, 02:40:04,VALID,1008.49,VALID,0,INVALID,138.636,VALID,0,VALID,23.7914,VALID,24,VALID,0,
2014-11-07, 02:41:04,VALID,1008.49,VALID,0,INVALID,138.659,VALID,0,VALID,23.8127,VALID,24,VALID,0,
2014-11-07, 02:42:04,VALID,1008.5,VALID,0,INVALID,138.644,VALID,0,VALID,23.7914,VALID,24,VALID,0.388281,
2014-11-07, 02:43:04,VALID,1008.52,VALID,0,INVALID,138.743,VALID,0,VALID,23.7914,VALID,24,VALID,0.368359,
2014-11-07, 02:44:04,VALID,1008.52,VALID,0,INVALID,138.712,VALID,0.112112,VALID,23.7896,VALID,24,VALID,0.422656,
2014-11-07, 02:45:04,VALID,1008.54,VALID,0,INVALID,138.758,VALID,0,VALID,23.8091,VALID,24,VALID,0.199219,
2014-11-07, 02:46:04,VALID,1008.52,VALID,0,INVALID,138.72,VALID,0.112112,VALID,23.8091,VALID,24,VALID,0.588281,
2014-11-07, 02:47:04,VALID,1008.56,VALID,0,INVALID,138.758,VALID,0.112112,VALID,23.8091,VALID,25,VALID,0.856641,
2014-11-07, 02:48:04,VALID,1008.57,VALID,0,INVALID,138.827,VALID,0,VALID,23.8091,VALID,25,VALID,0.682422,
2014-11-07, 02:49:04,VALID,1008.56,VALID,0,INVALID,138.888,VALID,0,VALID,23.8304,VALID,25,VALID,0.894141,
2014-11-07, 02:50:04,VALID,1008.56,VALID,0,INVALID,138.972,VALID,0.112112,VALID,23.7896,VALID,25,VALID,0.578516,
2014-11-07, 02:51:04,VALID,1008.6,VALID,0,INVALID,139.094,VALID,0.112112,VALID,23.8109,VALID,25,VALID,0.604297,
2014-11-07, 02:52:04,VALID,1008.6,VALID,0,INVALID,139.155,VALID,0.112112,VALID,23.7896,VALID,25,VALID,0.721484,
2014-11-07, 02:53:04,VALID,1008.6,VALID,0,INVALID,139.277,VALID,0.112112,VALID,23.7914,VALID,25,VALID,0.807031,
2014-11-07, 02:54:04,VALID,1008.59,VALID,0,INVALID,139.399,VALID,0.112112,VALID,23.7701,VALID,25,VALID,0.5,
2014-11-07, 02:55:04,VALID,1008.59,VALID,0,INVALID,139.445,VALID,0.112112,VALID,23.7507,VALID,25,VALID,0.763672,
2014-11-07, 02:56:04,VALID,1008.63,VALID,0,INVALID,139.483,VALID,0.112112,VALID,23.7507,VALID,25,VALID,0.589844,
2014-11-07, 02:57:04,VALID,1008.61,VALID,0,INVALID,139.589,VALID,0.112112,VALID,23.7312,VALID,25,VALID,0.364062,
2014-11-07, 02:58:04,VALID,1008.6,VALID,0,INVALID,139.643,VALID,0.112112,VALID,23.7507,VALID,25,VALID,0.352734,
2014-11-07, 02:59:04,VALID,1008.59,VALID,0,INVALID,139.696,VALID,0,VALID,23.7525,VALID,25,VALID,0.276563,
2014-11-07, 03:00:04,VALID,1008.59,VALID,0,INVALID,139.742,VALID,0,VALID,23.7525,VALID,25,VALID,0.053125,
2014-11-07, 03:01:04,VALID,1008.59,VALID,0,INVALID,139.75,VALID,0,VALID,23.7525,VALID,25,VALID,0,
2014-11-07, 03:02:04,VALID,1008.59,VALID,0,INVALID,139.772,VALID,0,VALID,23.7738,VALID,25,VALID,0,
2014-11-07, 03:03:04,VALID,1008.59,VALID,0,INVALID,139.826,VALID,0,VALID,23.7525,VALID,25,VALID,0,
2014-11-07, 03:04:04,VALID,1008.6,VALID,0,INVALID,139.841,VALID,0,VALID,23.7525,VALID,25,VALID,0,
2014-11-07, 03:05:04,VALID,1008.58,VALID,0,INVALID,139.864,VALID,0,VALID,23.772,VALID,25,VALID,0,
2014-11-07, 03:06:04,VALID,1008.56,VALID,0,INVALID,139.864,VALID,0,VALID,23.7525,VALID,25,VALID,0,
2014-11-07, 03:07:04,VALID,1008.59,VALID,0,INVALID,139.925,VALID,0,VALID,23.7525,VALID,25,VALID,0,
2014-11-07, 03:08:04,VALID,1008.58,VALID,0,INVALID,139.925,VALID,0,VALID,23.733,VALID,25,VALID,0,
2014-11-07, 03:09:04,VALID,1008.59,VALID,0,INVALID,140.032,VALID,0,VALID,23.7135,VALID,25,VALID,0,
2014-11-07, 03:10:04,VALID,1008.56,VALID,0,INVALID,140.077,VALID,0,VALID,23.7135,VALID,25,VALID,0,
2014-11-07, 03:11:04,VALID,1008.6,VALID,0,INVALID,140.108,VALID,0,VALID,23.694,VALID,25,VALID,0,
2014-11-07, 03:12:04,VALID,1008.6,VALID,0,INVALID,140.085,VALID,0,VALID,23.7153,VALID,25,VALID,0,
2014-11-07, 03:13:04,VALID,1008.6,VALID,0,INVALID,140.077,VALID,0,VALID,23.694,VALID,25,VALID,0,
2014-11-07, 03:14:04,VALID,1008.61,VALID,0,INVALID,140.062,VALID,0,VALID,23.694,VALID,25,VALID,0,
2014-11-07, 03:15:04,VALID,1008.61,VALID,0,INVALID,140.016,VALID,0,VALID,23.6727,VALID,25,VALID,0,
2014-11-07, 03:16:04,VALID,1008.62,VALID,0,INVALID,139.994,VALID,0,VALID,23.6727,VALID,25,VALID,0,
2014-11-07, 03:17:04,VALID,1008.61,VALID,0,INVALID,139.963,VALID,0,VALID,23.6745,VALID,25,VALID,0,
2014-11-07, 03:18:04,VALID,1008.64,VALID,0,INVALID,139.963,VALID,0,VALID,23.6745,VALID,25,VALID,0,
2014-11-07, 03:19:04,VALID,1008.65,VALID,0,INVALID,139.917,VALID,0,VALID,23.655,VALID,25,VALID,0,
2014-11-07, 03:20:04,VALID,1008.65,VALID,0,INVALID,139.94,VALID,0,VALID,23.655,VALID,25,VALID,0,
2014-11-07, 03:21:04,VALID,1008.66,VALID,0,INVALID,139.91,VALID,0,VALID,23.655,VALID,25,VALID,0,
2014-11-07, 03:22:04,VALID,1008.64,VALID,0,INVALID,139.856,VALID,0,VALID,23.6356,VALID,25,VALID,0,
2014-11-07, 03:23:04,VALID,1008.65,VALID,0,INVALID,139.841,VALID,0,VALID,23.6161,VALID,25,VALID,0,
2014-11-07, 03:24:04,VALID,1008.68,VALID,0,INVALID,139.833,VALID,0,VALID,23.6161,VALID,25,VALID,0,
2014-11-07, 03:25:04,VALID,1008.68,VALID,0,INVALID,139.772,VALID,0,VALID,23.6161,VALID,25,VALID,0.0363281,
2014-11-07, 03:26:04,VALID,1008.7,VALID,0,INVALID,139.704,VALID,0,VALID,23.6161,VALID,25,VALID,0.01875,
2014-11-07, 03:27:04,VALID,1008.72,VALID,0,INVALID,139.62,VALID,0,VALID,23.6568,VALID,25,VALID,0.285156,
2014-11-07, 03:28:04,VALID,1008.73,VALID,0,INVALID,139.445,VALID,0,VALID,23.655,VALID,25,VALID,0.209766,
2014-11-07, 03:29:04,VALID,1008.76,VALID,0,INVALID,139.368,VALID,0,VALID,23.655,VALID,25,VALID,0,
2014-11-07, 03:30:04,VALID,1008.76,VALID,0,INVALID,139.262,VALID,0,VALID,23.694,VALID,25,VALID,0,
2014-11-07, 03:31:04,VALID,1008.74,VALID,0,INVALID,139.17,VALID,0,VALID,23.694,VALID,25,VALID,0,
2014-11-07, 03:32:04,VALID,1008.77,VALID,0,INVALID,139.124,VALID,0,VALID,23.7135,VALID,25,VALID,0,
2014-11-07, 03:33:04,VALID,1008.79,VALID,0,INVALID,139.086,VALID,0,VALID,23.733,VALID,25,VALID,0,
2014-11-07, 03:34:04,VALID,1008.82,VALID,0,INVALID,139.071,VALID,0,VALID,23.7135,VALID,26,VALID,1.04375,
2014-11-07, 03:35:04,VALID,1008.81,VALID,0,INVALID,139.185,VALID,0,VALID,23.6922,VALID,27,VALID,0.696094,
2014-11-07, 03:36:04,VALID,1008.84,VALID,0,INVALID,139.246,VALID,0,VALID,23.7135,VALID,27,VALID,0.841016,
2014-11-07, 03:37:04,VALID,1008.84,VALID,0,INVALID,139.353,VALID,0,VALID,23.694,VALID,27,VALID,0.769531,
2014-11-07, 03:38:04,VALID,1008.83,VALID,0,INVALID,139.445,VALID,0,VALID,23.694,VALID,27,VALID,0.955859,
2014-11-07, 03:39:04,VALID,1008.84,VALID,0,INVALID,139.513,VALID,0,VALID,23.694,VALID,27,VALID,0.932422,
2014-11-07, 03:40:04,VALID,1008.84,VALID,0,INVALID,139.605,VALID,0,VALID,23.6958,VALID,27,VALID,0.683984,
2014-11-07, 03:41:04,VALID,1008.87,VALID,0,INVALID,139.681,VALID,0,VALID,23.6745,VALID,27,VALID,0.892578,
2014-11-07, 03:42:04,VALID,1008.9,VALID,0,INVALID,139.734,VALID,0,VALID,23.6745,VALID,27,VALID,0.700391,
2014-11-07, 03:43:04,VALID,1008.94,VALID,0,INVALID,139.856,VALID,0,VALID,23.6763,VALID,27,VALID,0.789453,
2014-11-07, 03:44:04,VALID,1008.92,VALID,0,INVALID,139.872,VALID,0,VALID,23.6745,VALID,27,VALID,0.598828,
2014-11-07, 03:45:04,VALID,1008.93,VALID,0,INVALID,139.955,VALID,0,VALID,23.6745,VALID,27,VALID,0.598437,
2014-11-07, 03:46:04,VALID,1008.94,VALID,0,INVALID,139.986,VALID,0,VALID,23.6356,VALID,27,VALID,0.483594,
2014-11-07, 03:47:04,VALID,1008.95,VALID,0,INVALID,140.032,VALID,0,VALID,23.655,VALID,27,VALID,0.132813,
2014-11-07, 03:48:04,VALID,1008.98,VALID,0,INVALID,140.055,VALID,0,VALID,23.655,VALID,27,VALID,0.427344,
2014-11-07, 03:49:04,VALID,1008.97,VALID,0,INVALID,140.116,VALID,0,VALID,23.655,VALID,27,VALID,0.353516,